TimeEDT,TemperatureF,Dew PointF,Humidity,Sea Level PressureIn,VisibilityMPH,Wind Direction,Wind SpeedMPH,Gust SpeedMPH,PrecipitationIn,Events,Conditions,WindDirDegrees,DateUTC
12:56 AM,54.0,52.0,93,30.10,7.0,Calm,Calm,-,0.01,Rain,Light Rain,0,2012-10-24 04:56:00
1:56 AM,54.0,52.0,93,30.10,6.0,NNE,3.5,-,0.00,,Overcast,20,2012-10-24 05:56:00
2:56 AM,54.0,52.0,93,30.10,6.0,Calm,Calm,-,N/A,,Overcast,0,2012-10-24 06:56:00
3:56 AM,54.0,52.0,93,30.11,4.0,Calm,Calm,-,N/A,,Overcast,0,2012-10-24 07:56:00
4:56 AM,53.1,51.1,93,30.11,10.0,ENE,6.9,-,N/A,,Overcast,70,2012-10-24 08:56:00
5:56 AM,53.1,51.1,93,30.13,10.0,ENE,4.6,-,N/A,,Overcast,70,2012-10-24 09:56:00
6:56 AM,53.1,51.1,93,30.14,10.0,NE,4.6,-,N/A,,Overcast,50,2012-10-24 10:56:00
7:56 AM,53.1,51.1,93,30.14,4.0,NE,3.5,-,0.00,Rain,Light Rain,50,2012-10-24 11:56:00
8:15 AM,53.6,51.8,94,30.14,1.0,NE,4.6,-,0.00,Rain,Light Rain,50,2012-10-24 12:15:00
8:56 AM,54.0,52.0,93,30.15,2.0,ENE,3.5,-,0.00,,Overcast,60,2012-10-24 12:56:00
9:56 AM,55.0,53.1,93,30.15,3.0,NNE,3.5,-,N/A,,Overcast,30,2012-10-24 13:56:00
10:56 AM,55.0,53.1,93,30.14,3.0,East,3.5,-,0.00,,Overcast,100,2012-10-24 14:56:00
11:56 AM,54.0,53.1,97,30.14,2.0,East,4.6,-,0.00,,Overcast,90,2012-10-24 15:56:00
12:29 PM,55.4,51.8,88,30.13,2.5,NE,4.6,-,N/A,,Overcast,50,2012-10-24 16:29:00
12:56 PM,55.0,51.1,86,30.13,5.0,East,5.8,-,N/A,,Overcast,90,2012-10-24 16:56:00
1:23 PM,55.4,50.0,82,30.13,5.0,NE,4.6,-,N/A,,Overcast,40,2012-10-24 17:23:00
1:56 PM,55.9,51.1,84,30.12,7.0,ENE,5.8,-,N/A,,Overcast,70,2012-10-24 17:56:00
2:56 PM,55.0,51.1,86,30.12,7.0,Calm,Calm,-,N/A,,Overcast,0,2012-10-24 18:56:00
3:56 PM,55.9,51.1,84,30.12,8.0,Variable,3.5,-,N/A,,Overcast,0,2012-10-24 19:56:00
4:56 PM,55.0,48.9,80,30.14,9.0,East,3.5,-,0.00,,Overcast,90,2012-10-24 20:56:00
5:56 PM,55.0,48.9,80,30.15,10.0,Calm,Calm,-,0.00,,Overcast,0,2012-10-24 21:56:00
6:56 PM,55.0,48.9,80,30.17,10.0,Variable,3.5,-,N/A,,Overcast,0,2012-10-24 22:56:00
7:56 PM,54.0,48.0,80,30.18,10.0,Calm,Calm,-,N/A,,Overcast,0,2012-10-24 23:56:00
8:56 PM,53.6,48.2,82,30.17,10.0,Calm,Calm,-,N/A,,Overcast,0,2012-10-25 00:56:00
9:56 PM,54.0,48.0,80,30.19,10.0,Calm,Calm,-,N/A,,Overcast,0,2012-10-25 01:56:00
10:56 PM,53.1,48.9,86,30.20,10.0,ENE,3.5,-,0.00,Rain,Light Rain,70,2012-10-25 02:56:00
11:56 PM,53.1,48.9,86,30.21,10.0,Calm,Calm,-,0.00,,Overcast,0,2012-10-25 03:56:00